This is the latest recevied weather packets stored in our database for station/object KD9CCP. If no packets are shown the sender has not sent any weather packets the latest 10 day(s).
| Time | Temp. | Humidity | Pressure | Rain* | Wind** | Luminosity | Snow |
|---|---|---|---|---|---|---|---|
| 1777643790 | 0° C | 92% | 1019.2 hPa | 0 mm | - | 34 W/m² | - |
| 1777643488 | 0° C | 91% | 1019 hPa | 0 mm | - | 38 W/m² | - |
| 1777643184 | 0° C | 91% | 1019 hPa | 0 mm | - | 35 W/m² | - |
| 1777642880 | 0° C | 91% | 1019.1 hPa | 0 mm | - | 37 W/m² | - |
| 1777642578 | 0° C | 93% | 1019 hPa | 0 mm | - | 52 W/m² | - |
| 1777642274 | 0° C | 95% | 1018.9 hPa | 0 mm | - | 55 W/m² | - |
| 1777641971 | -0.56° C | 94% | 1018.8 hPa | 0 mm | - | 54 W/m² | - |
| 1777641667 | -0.56° C | 94% | 1018.9 hPa | 0 mm | - | 49 W/m² | - |
| 1777641362 | -0.56° C | 94% | 1018.7 hPa | 0 mm | - | 45 W/m² | - |
| 1777641058 | -0.56° C | 93% | 1019.1 hPa | 0 mm | - | 32 W/m² | - |
| 1777640754 | -0.56° C | 91% | 1019 hPa | 0 mm | - | 19 W/m² | - |
| 1777640451 | 0° C | 87% | 1019 hPa | 0 mm | - | 8 W/m² | - |
| 1777640148 | 0° C | 81% | 1018.8 hPa | 0 mm | - | 11 W/m² | - |
| 1777639844 | 0.56° C | 81% | 1018.7 hPa | 0 mm | - | 16 W/m² | - |
| 1777639542 | 0° C | 81% | 1018.6 hPa | 0 mm | - | 17 W/m² | - |
| 1777639239 | 0° C | 81% | 1018.8 hPa | 0 mm | - | 16 W/m² | - |
| 1777638935 | 0° C | 81% | 1018.6 hPa | 0 mm | - | 17 W/m² | - |
| 1777638630 | 0° C | 80% | 1018.7 hPa | 0 mm | - | 16 W/m² | - |
| 1777638327 | 0° C | 81% | 1018.6 hPa | 0 mm | - | 12 W/m² | - |
| 1777638023 | 0° C | 81% | 1018.6 hPa | 0 mm | - | 10 W/m² | - |
| 1777637720 | 0° C | 81% | 1018.5 hPa | 0 mm | - | 9 W/m² | - |
| 1777637417 | 0° C | 82% | 1018.4 hPa | 0 mm | - | 9 W/m² | - |
| 1777637114 | 0° C | 82% | 1018.5 hPa | 0 mm | - | 8 W/m² | - |
| 1777636810 | 0° C | 83% | 1018.5 hPa | 0 mm | - | 7 W/m² | - |
| 1777636500 | -0.56° C | 82% | 1018.2 hPa | 0 mm | - | 6 W/m² | - |
* Rain latest hour (hover to see other rain measurements)
** Current wind speed in m/s (hover to see current wind gust speed)